Location: Baller�as
(41.9020°N, 0.1554°W)
Time: 01:06:01
(UTC+00:00)

Cosmos 2333 Rocket - Pass Details

Date: 10 August 2020
Orbit: 837 x 864 km, 70.8° (Epoch: 22 September)

Event Time Altitude Azimuth Distance (km) Brightness Sun altitude
Rises 22:08:04 0° 346° (NNW) 3,453 6.5 -26.8°
Reaches altitude 10° 22:11:20 10° 4° (N) 2,512 5.3 -27.1°
Maximum altitude 22:15:20 19° 49° (NE) 1,947 4.2 -27.5°
Enters shadow 22:16:39 18° 66° (ENE) 2,012 4.1 -27.6°
